Temp
73 77 82 83 83 83 83 83 83 83 83 83 83 83 83 83 83 83 83 83 84 84 84 84 84 84 84 84 84 83 83 83 83 83 83 83 82 82 83 83 82 83 82
76 79 82 83 83 84 83 82 82 83 83 83 83 83 83 83 84 84 83 83 84 84 84 84 84 84 84 84 83 83 83 83 83 84 84 84 83 83 82 82 82 83 82
77 79 81 82 83 83 83 83 82 83 83 83 83 83 83 83 84 84 84 84 84 84 84 84 84 84 83 83 84 83 83 83 83 83 82 81 81 83 83 82 83 82 81
77 77 79 82 83 83 83 83 83 83 83 83 83 83 83 83 84 84 84 84 84 84 84 84 84 84 83 83 83 83 83 83 83 83 81 82 84 83 83 82 82 81 81
75 78 79 82 83 83 83 83 83 83 83 83 83 83 84 84 84 84 84 84 84 84 84 84 84 84 84 83 83 83 83 83 82 81 78 79 80 83 82 82 82 81 81
76 76 82 83 83 83 83 83 83 83 83 83 83 84 84 84 84 84 84 84 84 84 84 84 84 84 84 83 83 83 83 83 82 79 77 80 79 82 82 82 82 82 81
75 78 81 83 83 83 83 83 83 83 83 83 84 84 84 84 84 84 84 84 84 84 84 84 84 84 83 83 83 83 83 83 79 77 77 78 79 81 82 82 82 81 81
76 77 80 82 83 83 83 83 83 83 83 84 84 84 84 84 84 84 84 84 84 84 82 84 84 84 83 83 83 83 83 83 80 78 78 78 78 81 83 82 81 81 81
77 77 77 79 81 83 83 83 83 83 84 84 84 83 84 84 84 84 83 83 83 83 83 83 84 83 83 83 83 82 81 82 78 78 79 79 78 81 82 81 81 81 80
76 76 76 76 77 78 80 83 83 83 84 84 84 84 84 84 84 84 82 82 83 83 83 83 83 83 83 83 83 83 83 82 79 79 80 78 79 81 82 81 81 81 81
75 75 75 75 75 76 77 81 82 84 84 84 84 84 83 79 81 82 81 83 84 83 83 83 83 83 82 82 83 83 82 79 79 80 80 78 79 81 82 82 81 81 81
76 74 74 74 74 75 79 77 77 78 80 78 78 78 77 77 77 79 81 83 84 84 84 83 83 83 82 79 79 82 78 79 79 79 80 79 80 81 82 81 81 81 81
76 78 73 74 74 75 76 75 75 75 76 75 76 75 76 75 76 77 76 78 78 81 79 81 81 79 78 77 77 78 78 79 79 79 81 79 80 81 82 81 81 81 81
75 78 74 74 74 74 74 74 75 75 75 74 75 75 74 74 74 74 75 76 75 76 76 77 77 77 77 77 77 77 79 79 79 79 79 80 80 81 82 82 81 81 81
74 77 75 74 74 73 73 73 74 74 74 75 74 75 74 74 74 74 74 74 75 75 75 74 75 76 76 76 77 77 78 79 79 78 78 81 80 80 81 82 82 81 81
74 75 75 74 74 73 73 73 74 74 74 74 74 74 74 74 74 74 73 74 74 74 75 74 74 74 75 76 76 77 77 78 79 78 79 79 81 80 80 81 82 81 81
74 74 73 73 74 73 73 73 73 74 75 74 74 74 74 74 73 74 73 74 74 74 75 74 73 74 73 75 75 77 77 78 79 80 79 78 81 81 81 81 80 81 81
75 74 74 76 74 73 73 72 73 73 74 74 74 74 74 74 74 73 73 74 75 74 74 74 73 73 73 73 73 75 76 76 77 79 79 79 78 82 81 81 80 80 80
75 73 72 73 73 73 73 72 72 73 72 74 74 74 74 75 75 73 74 74 75 74 73 74 74 73 73 73 74 74 75 75 76 81 79 79 79 80 81 79 80 80 81
73 74 73 72 72 72 72 72 72 72 73 74 74 75 75 75 75 75 75 75 75 73 74 74 73 73 74 74 75 77 75 75 76 76 77 81 79 80 80 79 79 81 80
73 72 72 72 73 72 71 71 72 71 73 74 74 75 75 75 75 75 74 74 74 74 75 74 74 73 73 73 72 72 73 75 75 75 77 78 78 79 79 79 79 80 81
74 73 71 72 72 72 75 73 72 72 73 73 74 75 75 75 76 75 75 74 74 74 73 72 73 72 73 71 71 68 67 72 74 75 75 76 77 78 79 79 79 78 79
72 72 72 72 73 73 74 72 72 72 72 71 71 73 74 75 75 74 75 74 75 73 75 73 73 72 70 70 72 71 65 65 69 73 73 75 76 75 77 78 79 79 79
74 74 74 74 73 73 72 72 72 68 66 71 73 74 76 75 75 75 74 74 74 73 72 74 72 74 72 69 69 73 72 71 67 68 73 73 73 73 74 75 78 79 79
77 75 74 73 73 74 72 72 71 69 67 71 72 72 72 74 74 76 75 74 73 74 73 73 73 72 73 74 70 68 70 72 70 67 68 72 74 76 77 76 77 78 78
74 73 72 70 69 72 72 72 71 70 71 70 71 70 71 72 72 74 76 74 74 75 74 74 74 73 72 73 75 70 72 68 69 68 66 70 71 76 76 77 76 75 76
MSLP
1013.38 1013.25 1013.32 1013.30 1013.60 1013.92 1014.08 1014.44 1014.77 1015.03 1015.18 1015.46 1015.76 1016.04 1016.36 1016.51 1016.76 1016.81 1016.99 1017.18 1017.40 1017.40 1017.48 1017.51 1017.53 1017.71 1017.92 1018.00 1018.25 1018.35 1018.48 1018.81 1018.95 1019.01 1019.15 1019.23 1019.33 1019.43 1019.56 1019.78 1020.03 1020.13 1020.22
1013.21 1013.27 1013.38 1013.66 1013.95 1014.16 1014.53 1014.75 1015.29 1015.57 1015.74 1016.03 1016.17 1016.42 1016.68 1016.93 1017.09 1017.23 1017.33 1017.55 1017.76 1017.77 1017.83 1017.83 1017.95 1018.05 1018.31 1018.34 1018.68 1018.80 1018.86 1019.18 1019.24 1019.31 1019.42 1019.63 1019.68 1019.74 1019.96 1020.13 1020.33 1020.43 1020.59
1013.50 1013.56 1013.64 1013.89 1014.09 1014.37 1014.67 1015.18 1015.49 1015.98 1016.13 1016.21 1016.47 1016.75 1017.03 1017.23 1017.32 1017.58 1017.69 1017.81 1018.05 1018.15 1018.13 1018.18 1018.42 1018.47 1018.75 1018.83 1018.87 1019.14 1019.28 1019.42 1019.44 1019.61 1019.86 1020.08 1020.13 1020.12 1020.22 1020.39 1020.57 1020.77 1020.93
1013.50 1013.87 1014.10 1014.25 1014.47 1014.60 1015.01 1015.38 1015.66 1016.08 1016.35 1016.54 1016.78 1016.95 1017.22 1017.36 1017.60 1017.80 1018.03 1018.02 1018.28 1018.48 1018.50 1018.65 1018.80 1018.98 1019.17 1019.21 1019.12 1019.39 1019.58 1019.72 1019.71 1019.87 1020.18 1020.27 1020.24 1020.43 1020.51 1020.64 1020.86 1021.09 1021.22
1013.87 1014.06 1014.32 1014.53 1014.77 1015.05 1015.42 1015.65 1015.89 1016.21 1016.62 1016.86 1017.13 1017.34 1017.50 1017.76 1017.87 1018.00 1018.30 1018.42 1018.56 1018.79 1018.75 1018.91 1019.11 1019.36 1019.44 1019.59 1019.48 1019.69 1019.82 1020.01 1020.11 1020.19 1020.44 1020.53 1020.53 1020.64 1020.72 1020.84 1021.00 1021.11 1021.39
1014.31 1014.43 1014.45 1014.68 1014.91 1015.22 1015.71 1015.97 1016.16 1016.44 1016.81 1017.15 1017.44 1017.62 1017.80 1018.06 1018.21 1018.37 1018.60 1018.76 1018.89 1019.00 1019.12 1019.18 1019.30 1019.43 1019.63 1019.87 1019.86 1019.98 1020.02 1020.14 1020.38 1020.57 1020.73 1020.75 1020.78 1020.69 1020.87 1020.97 1021.08 1021.30 1021.49
1014.65 1014.78 1014.89 1015.03 1015.34 1015.60 1015.92 1016.26 1016.54 1016.81 1017.13 1017.32 1017.63 1017.86 1018.03 1018.29 1018.49 1018.69 1018.88 1019.03 1019.18 1019.25 1019.26 1019.43 1019.54 1019.75 1019.84 1020.03 1020.14 1020.14 1020.23 1020.25 1020.64 1020.90 1020.98 1021.14 1021.20 1021.09 1021.17 1021.23 1021.31 1021.47 1021.62
1014.77 1014.97 1015.11 1015.43 1015.68 1015.95 1016.24 1016.47 1016.81 1017.11 1017.36 1017.59 1017.86 1018.14 1018.37 1018.58 1018.78 1019.00 1019.15 1019.25 1019.38 1019.44 1019.53 1019.63 1019.81 1019.92 1020.01 1020.11 1020.29 1020.28 1020.37 1020.26 1020.65 1020.98 1021.16 1021.31 1021.47 1021.39 1021.32 1021.46 1021.52 1021.62 1021.68
1014.97 1015.34 1015.55 1015.78 1015.93 1016.19 1016.47 1016.76 1017.01 1017.34 1017.61 1017.87 1018.15 1018.39 1018.58 1018.78 1018.95 1019.16 1019.31 1019.41 1019.51 1019.60 1019.72 1019.88 1020.05 1020.06 1020.21 1020.22 1020.39 1020.35 1020.37 1020.32 1020.68 1021.05 1021.20 1021.40 1021.43 1021.51 1021.59 1021.71 1021.71 1021.75 1021.78
1015.49 1015.66 1015.92 1016.19 1016.34 1016.59 1016.79 1017.08 1017.32 1017.57 1017.84 1018.08 1018.36 1018.56 1018.80 1018.97 1019.11 1019.30 1019.53 1019.61 1019.68 1019.76 1019.86 1019.95 1020.11 1020.23 1020.37 1020.35 1020.43 1020.41 1020.38 1020.33 1020.73 1021.02 1021.14 1021.30 1021.32 1021.48 1021.61 1021.79 1021.82 1021.84 1021.77
1015.89 1016.04 1016.16 1016.37 1016.64 1016.92 1017.17 1017.41 1017.69 1017.91 1018.11 1018.29 1018.54 1018.79 1018.99 1019.20 1019.23 1019.41 1019.66 1019.77 1019.87 1019.79 1019.86 1019.99 1020.12 1020.34 1020.42 1020.50 1020.54 1020.53 1020.55 1020.62 1020.73 1020.94 1021.08 1021.22 1021.29 1021.35 1021.53 1021.73 1021.89 1021.89 1021.90
1016.04 1016.22 1016.46 1016.64 1016.84 1016.99 1017.21 1017.57 1017.88 1018.11 1018.29 1018.53 1018.80 1019.02 1019.28 1019.46 1019.54 1019.65 1019.77 1019.85 1019.88 1019.92 1020.04 1020.15 1020.21 1020.31 1020.51 1020.69 1020.64 1020.63 1020.67 1020.74 1020.78 1020.91 1021.01 1021.11 1021.15 1021.22 1021.34 1021.59 1021.77 1021.87 1021.89
1015.93 1016.30 1016.65 1016.76 1017.04 1017.24 1017.37 1017.65 1017.91 1018.29 1018.49 1018.80 1018.98 1019.16 1019.35 1019.64 1019.81 1019.88 1019.99 1020.04 1020.08 1020.05 1020.20 1020.18 1020.23 1020.42 1020.66 1020.74 1020.72 1020.82 1020.70 1020.73 1020.78 1020.75 1020.70 1020.83 1020.89 1020.98 1021.06 1021.28 1021.47 1021.59 1021.73
1015.86 1016.19 1016.66 1016.79 1017.11 1017.41 1017.68 1017.94 1018.12 1018.40 1018.61 1018.89 1019.12 1019.33 1019.56 1019.71 1020.00 1020.15 1020.20 1020.20 1020.25 1020.38 1020.33 1020.43 1020.59 1020.63 1020.63 1020.74 1020.72 1020.72 1020.66 1020.72 1020.65 1020.51 1020.45 1020.43 1020.55 1020.70 1020.80 1020.92 1021.23 1021.38 1021.55
1015.77 1016.01 1016.49 1016.68 1016.87 1017.26 1017.67 1017.98 1018.22 1018.43 1018.66 1018.85 1019.08 1019.26 1019.51 1019.76 1020.02 1020.18 1020.26 1020.30 1020.25 1020.26 1020.43 1020.50 1020.59 1020.58 1020.74 1020.78 1020.65 1020.52 1020.46 1020.39 1020.27 1020.23 1020.27 1020.23 1020.35 1020.49 1020.68 1020.80 1021.00 1021.27 1021.37
1015.52 1015.81 1016.35 1016.77 1016.93 1017.21 1017.39 1017.64 1017.90 1018.23 1018.47 1018.73 1018.93 1019.08 1019.33 1019.62 1019.82 1020.07 1020.28 1020.34 1020.15 1020.05 1020.18 1020.35 1020.39 1020.43 1020.49 1020.57 1020.42 1020.27 1020.25 1020.11 1019.98 1019.99 1020.11 1020.10 1020.19 1020.39 1020.55 1020.63 1020.66 1020.89 1021.12
1015.14 1015.70 1016.06 1016.49 1016.82 1017.24 1017.58 1017.96 1018.21 1018.30 1018.40 1018.57 1018.70 1018.91 1019.10 1019.38 1019.56 1019.73 1020.01 1019.92 1019.71 1019.80 1019.76 1020.10 1020.31 1020.30 1020.42 1020.37 1020.34 1020.13 1020.05 1019.93 1019.68 1019.66 1019.82 1019.96 1019.94 1020.04 1020.10 1020.16 1020.23 1020.49 1020.75
1015.04 1015.47 1016.05 1016.43 1016.89 1017.31 1017.53 1017.90 1018.25 1018.52 1018.64 1018.61 1018.64 1018.72 1018.84 1019.03 1019.22 1019.41 1019.52 1019.39 1019.38 1019.59 1019.72 1019.87 1020.01 1020.28 1020.46 1020.45 1020.22 1019.93 1019.80 1019.78 1019.70 1019.50 1019.57 1019.58 1019.69 1019.72 1019.81 1019.83 1019.87 1019.98 1020.33
1014.77 1015.25 1015.81 1016.39 1016.71 1017.01 1017.29 1017.67 1018.03 1018.33 1018.47 1018.43 1018.52 1018.61 1018.59 1018.65 1018.76 1018.97 1018.96 1018.89 1019.02 1019.18 1019.39 1019.63 1019.85 1019.95 1020.21 1020.23 1020.15 1019.92 1019.79 1019.66 1019.52 1019.34 1019.25 1019.19 1019.25 1019.33 1019.43 1019.55 1019.64 1019.71 1019.78
1014.71 1015.22 1015.73 1016.19 1016.57 1017.00 1017.40 1017.71 1017.95 1018.02 1017.85 1017.80 1017.74 1017.81 1017.95 1018.13 1018.23 1018.40 1018.49 1018.48 1018.67 1018.84 1018.98 1019.17 1019.41 1019.60 1019.82 1019.86 1019.82 1019.53 1019.51 1019.48 1019.14 1019.16 1018.99 1018.77 1018.82 1018.90 1018.96 1019.10 1019.25 1019.24 1019.22
1014.69 1014.94 1015.33 1015.91 1016.23 1016.76 1017.21 1017.48 1017.67 1017.59 1017.58 1017.41 1017.27 1017.08 1017.14 1017.24 1017.52 1017.65 1017.80 1017.96 1018.12 1018.36 1018.48 1018.67 1018.97 1019.26 1019.43 1019.68 1019.85 1019.43 1019.01 1018.86 1018.88 1018.79 1018.54 1018.42 1018.44 1018.42 1018.52 1018.57 1018.72 1018.83 1018.73
1014.20 1014.81 1015.46 1015.76 1016.07 1016.34 1016.63 1016.90 1016.95 1016.78 1016.69 1016.94 1016.93 1016.59 1016.40 1016.51 1016.71 1016.84 1016.87 1017.07 1017.28 1017.59 1017.92 1018.24 1018.53 1018.80 1018.94 1019.16 1019.44 1019.76 1019.25 1018.54 1018.16 1017.95 1017.89 1017.95 1017.99 1018.01 1018.00 1017.99 1018.12 1018.23 1018.27
1014.07 1014.57 1014.91 1015.00 1015.18 1015.61 1016.01 1016.29 1016.21 1016.37 1016.31 1016.18 1016.19 1015.98 1015.71 1015.62 1015.97 1015.89 1016.06 1016.19 1016.57 1016.73 1016.98 1017.28 1017.67 1017.93 1018.21 1018.54 1018.66 1018.86 1019.15 1018.66 1018.27 1017.36 1017.26 1017.35 1017.41 1017.55 1017.49 1017.49 1017.49 1017.54 1017.59
1013.65 1014.02 1014.11 1014.34 1014.60 1015.20 1015.58 1015.99 1015.93 1015.79 1015.98 1015.31 1015.13 1014.95 1014.65 1014.78 1015.07 1015.25 1015.27 1015.48 1015.63 1015.94 1016.34 1016.31 1016.54 1016.85 1017.36 1017.82 1018.25 1018.16 1018.04 1018.18 1018.22 1017.89 1017.35 1017.11 1017.15 1017.11 1017.03 1017.06 1017.08 1017.03 1016.91
1013.47 1013.62 1013.86 1014.46 1014.83 1015.21 1015.34 1015.51 1015.78 1015.55 1015.01 1014.51 1014.54 1014.38 1014.24 1014.21 1014.15 1014.21 1014.30 1014.41 1015.02 1015.15 1015.22 1015.45 1015.75 1016.07 1016.32 1016.49 1016.98 1017.33 1017.52 1017.58 1017.83 1017.97 1017.57 1017.21 1016.83 1016.51 1016.34 1016.26 1016.29 1016.33 1016.25
1013.76 1013.97 1014.32 1014.58 1015.09 1015.13 1015.42 1015.52 1015.67 1015.72 1015.41 1015.19 1014.68 1014.33 1013.96 1013.65 1013.59 1013.53 1013.43 1013.68 1013.79 1014.11 1014.24 1014.41 1014.62 1014.84 1015.11 1015.29 1015.50 1016.05 1016.40 1016.52 1016.73 1017.06 1017.17 1016.72 1016.54 1015.84 1015.84 1015.66 1015.65 1015.57 1015.61
Wind_Speed
2 7 15 18 18 18 19 19 19 19 20 20 19 18 17 16 15 16 14 13 13 12 14 15 17 17 16 16 16 16 16 15 14 15 15 14 14 14 14 13 12 10 13
7 9 16 17 17 18 19 19 19 19 19 19 18 17 16 14 14 14 14 15 13 13 14 15 15 16 15 14 14 14 15 13 13 13 13 12 13 14 13 12 11 10 11
9 9 13 17 18 18 18 18 20 19 19 19 18 17 15 14 14 14 14 14 13 13 13 15 14 15 14 15 16 14 14 12 11 12 12 6 6 11 12 10 11 12 11
9 8 10 16 17 18 17 18 19 19 18 18 17 16 15 14 14 14 14 15 13 12 13 13 13 13 13 13 14 14 13 12 11 11 6 5 7 11 10 11 11 10 11
7 9 11 17 18 19 18 18 18 18 17 17 16 15 15 14 14 16 13 13 13 12 11 14 14 12 13 12 13 12 12 11 11 9 5 4 4 9 9 10 10 10 10
7 6 14 17 18 19 18 17 17 17 17 16 16 15 14 13 13 13 13 11 10 11 10 13 13 14 13 11 10 10 10 6 8 5 5 5 3 10 10 10 10 10 9
7 6 10 17 16 16 18 17 18 17 16 16 15 14 13 12 12 11 11 11 9 9 11 12 13 13 12 9 8 7 5 4 5 4 4 3 3 8 10 9 9 9 9
8 6 8 15 16 17 18 18 18 18 16 15 14 14 13 11 10 9 9 9 9 9 9 11 11 11 10 9 6 5 2 5 7 6 5 4 4 7 8 8 9 8 9
6 6 5 6 13 18 17 17 17 17 16 14 13 12 12 12 11 9 7 8 8 10 9 10 9 10 8 8 6 3 1 6 7 5 6 3 6 6 7 7 8 8 8
5 5 5 5 5 6 9 16 15 15 16 15 14 13 12 11 9 9 6 5 6 7 9 10 9 7 7 7 6 4 1 3 6 6 4 4 8 8 7 7 8 8 9
5 5 5 5 5 5 5 9 11 15 15 15 13 13 8 3 4 6 6 7 7 6 5 7 7 7 6 7 7 5 2 1 5 4 4 9 10 10 9 9 8 8 9
11 5 5 5 5 6 6 4 5 4 4 4 4 4 3 3 2 3 6 8 7 6 6 6 7 7 6 2 2 4 1 2 3 5 4 11 12 13 11 10 10 10 10
12 10 5 5 5 5 4 3 2 2 2 2 4 4 3 2 2 0 1 1 2 5 1 2 3 2 4 3 3 2 2 2 2 4 7 14 14 15 13 12 12 12 13
12 14 8 7 6 4 3 3 3 3 2 2 3 3 2 2 2 2 1 2 2 2 3 2 2 2 3 4 4 3 4 3 3 3 6 14 16 16 15 14 14 14 14
12 15 11 9 9 7 5 3 3 3 3 3 3 3 3 2 2 2 3 2 3 2 3 2 3 2 3 4 4 4 5 5 4 3 4 13 15 15 15 15 14 15 15
11 13 12 10 8 7 6 7 6 5 4 4 3 4 4 3 3 3 3 4 4 3 3 3 3 3 3 3 4 4 5 5 4 3 4 4 12 13 14 15 15 16 16
10 10 12 11 8 7 5 4 3 4 5 5 5 5 6 5 5 5 4 6 5 4 5 3 3 2 3 3 5 5 4 5 4 4 4 4 6 14 15 16 17 15 16
8 10 9 9 9 8 6 4 3 3 3 5 4 4 7 7 7 5 5 6 4 3 3 4 3 3 4 4 4 4 4 3 5 5 5 5 5 6 9 16 15 15 17
9 9 9 8 9 10 7 4 4 4 4 4 4 5 7 8 9 7 6 6 4 4 4 5 4 3 4 4 5 5 4 5 5 5 6 7 7 7 6 10 12 13 16
7 6 6 6 6 5 4 3 3 4 6 6 7 7 8 8 9 8 7 7 5 4 5 4 6 4 5 5 6 6 4 5 5 6 6 6 7 9 8 8 7 8 14
7 8 9 9 8 7 4 4 5 6 5 6 7 10 9 10 10 10 8 8 7 8 9 8 5 7 6 4 2 3 5 7 7 7 6 6 7 8 8 8 6 6 7
10 8 7 8 7 7 6 3 3 4 4 4 5 9 9 10 12 11 12 10 10 8 9 8 9 5 5 6 4 1 3 3 4 8 7 7 9 7 8 9 8 9 9
8 8 9 10 10 8 9 4 4 2 3 3 5 6 9 11 12 12 12 10 10 9 9 11 10 11 8 5 9 4 2 5 2 2 6 6 8 6 7 8 8 9 9
7 7 10 11 11 7 9 6 9 6 5 5 7 9 9 10 13 12 11 11 12 9 10 10 9 11 9 8 3 7 3 3 3 3 2 2 5 7 7 6 7 9 10
4 5 4 1 1 4 7 9 8 8 6 7 5 8 8 8 11 12 12 13 12 10 12 12 11 11 10 9 7 3 8 7 4 5 9 4 2 4 4 5 5 7 8
6 8 6 8 5 2 5 5 6 7 8 6 8 6 7 6 7 10 11 11 13 13 13 12 14 14 13 12 10 9 9 4 8 8 8 9 7 6 4 5 6 6 7
Wind_Direction
158 153 140 126 128 123 125 127 126 125 121 118 115 114 114 112 109 112 112 112 110 105 100 98 99 100 101 96 97 99 101 103 107 104 108 107 103 99 104 104 96 100 98
124 148 137 130 127 124 123 129 126 124 122 119 118 115 111 109 109 112 114 112 107 104 103 100 99 102 104 104 100 104 108 112 113 114 113 105 108 107 107 109 104 103 97
121 137 131 134 130 127 125 127 127 132 130 126 122 118 115 116 117 116 116 114 110 109 107 105 108 110 108 114 116 116 113 119 119 105 97 96 100 110 108 113 118 110 106
124 120 131 135 130 130 132 132 130 136 133 130 130 129 125 122 120 119 121 118 115 112 115 112 107 109 119 123 121 114 114 114 114 114 102 106 120 116 118 109 107 107 115
107 125 139 134 134 133 135 137 136 135 134 135 134 129 127 123 121 120 115 113 118 125 120 122 118 121 124 125 123 122 120 111 113 114 111 110 115 127 126 126 123 115 119
106 122 137 135 136 138 139 139 140 141 139 139 138 134 129 127 125 122 122 119 120 121 126 121 129 129 129 130 131 130 140 105 125 125 124 143 133 141 138 136 132 129 129
114 129 140 143 142 140 143 144 146 145 143 141 141 137 134 134 129 129 130 130 129 129 135 132 130 133 135 141 149 153 180 199 144 146 142 144 171 153 152 147 138 133 138
124 125 143 143 144 145 147 147 147 151 147 143 144 141 140 137 132 135 135 137 138 136 135 136 143 145 148 153 161 151 199 158 154 161 159 159 213 190 167 154 152 148 159
112 117 116 142 149 151 152 150 152 154 154 151 149 149 149 150 152 154 158 156 157 152 141 142 153 155 165 163 177 166 159 142 154 162 166 176 227 182 180 181 175 168 163
109 106 119 129 126 143 156 158 158 160 165 162 162 162 165 167 166 168 153 168 175 175 160 159 160 170 179 176 190 190 136 144 161 164 178 188 201 197 205 202 194 187 182
131 122 122 126 131 130 133 165 166 168 173 176 176 180 175 150 165 173 173 192 198 196 185 172 169 179 185 192 204 200 125 118 162 180 192 200 207 203 213 212 217 207 205
168 151 133 132 147 147 153 162 157 176 169 157 169 193 144 178 181 177 192 207 207 214 210 212 185 179 187 209 242 226 192 192 178 197 213 208 210 211 213 214 218 221 219
173 177 159 151 151 149 152 140 136 129 134 151 181 186 179 171 212 280 260 305 324 258 250 254 210 153 181 198 229 252 251 246 230 222 225 217 211 212 213 216 227 225 229
179 186 170 164 158 161 140 159 151 149 158 171 197 198 180 181 202 229 241 252 263 291 284 262 258 222 199 216 223 250 261 254 260 248 234 219 210 212 216 216 225 227 229
181 189 184 177 173 170 164 159 165 172 175 188 194 204 190 188 208 214 243 254 253 230 253 248 247 241 238 242 244 248 266 265 279 254 241 232 217 212 220 224 226 234 234
181 190 185 188 184 177 182 179 183 179 186 188 197 207 202 195 208 206 226 243 235 214 233 238 240 236 247 243 260 260 268 272 262 226 229 231 221 215 223 230 230 233 237
192 178 185 182 178 184 186 194 199 205 192 201 211 205 208 201 213 208 210 230 234 228 207 232 242 256 259 257 255 270 280 278 280 245 229 225 234 226 224 226 230 231 235
182 184 179 183 181 189 187 178 192 208 218 222 219 209 215 213 215 218 227 237 214 215 214 227 237 240 246 244 255 262 273 286 270 248 242 228 223 232 240 239 237 240 232
183 177 174 173 185 194 198 177 188 200 210 218 218 218 216 217 216 215 226 234 210 205 202 210 228 207 245 245 255 255 253 250 256 265 242 228 220 222 227 247 248 246 245
171 166 162 170 183 159 151 180 195 210 215 208 215 217 212 217 215 212 226 233 199 208 227 209 228 218 235 254 267 266 241 246 242 242 246 243 222 224 228 234 238 243 244
169 175 179 177 186 174 177 198 221 233 244 236 227 227 216 213 208 211 220 225 209 216 229 213 216 228 240 225 282 287 270 238 236 238 238 242 237 235 225 229 232 241 247
194 186 173 199 198 190 198 201 198 185 212 228 243 239 227 219 216 210 216 221 210 215 215 201 202 218 233 180 201 192 292 298 242 222 217 224 232 230 233 231 227 229 237
192 182 191 199 199 197 187 168 202 208 244 196 225 243 227 226 229 220 213 219 217 215 219 214 203 208 226 195 201 180 208 241 318 270 222 220 224 221 233 234 230 232 231
214 184 200 205 204 193 176 199 225 226 225 236 234 237 240 220 231 220 218 217 214 209 218 218 214 213 210 219 201 228 216 165 208 309 307 236 216 225 226 230 235 237 233
189 200 228 187 212 170 194 206 221 246 240 258 251 237 241 230 223 223 212 212 217 214 215 215 213 208 206 215 207 178 223 223 211 221 265 274 273 234 226 225 233 238 236
46 57 65 81 56 106 182 224 242 258 266 278 276 265 256 241 226 234 229 219 218 218 216 214 215 213 212 213 212 203 213 189 210 216 237 246 253 270 253 245 236 235 239